Location: Fort Frances
(48.6170°N, 93.4170°W)
Time: 08:38:04
(UTC-06:00)

ISS - All Passes

Search period start: 10 December 2016 00:00
Search period end: 20 December 2016 00:00
Orbit: 401 x 410 km, 51.6° (Epoch: 10 December)

Date Brightness Start Highest point End Pass type
(mag) Time Alt. Az. Time Alt. Az. Time Alt. Az.
10 Dec - 15:28:04 10° SW 15:31:16 49° SSE 15:34:28 10° ENE daylight
10 Dec - 17:04:31 10° W 17:07:47 55° N 17:11:03 10° ENE visible
10 Dec - 18:41:19 10° WNW 18:44:34 53° N 18:47:50 10° E visible
10 Dec - 20:17:53 10° WNW 20:21:07 53° SSW 20:24:21 10° SE visible
10 Dec - 21:56:17 10° WSW 21:57:01 11° SW 21:57:44 10° SSW night (unlit)
11 Dec - 14:36:27 10° SSW 14:39:22 31° SE 14:42:19 10° E daylight
11 Dec - 16:12:26 10° W 16:15:43 69° NNW 16:19:01 10° ENE daylight
11 Dec - 17:49:16 10° WNW 17:52:29 48° N 17:55:43 10° E visible
11 Dec - 19:25:50 10° WNW 19:29:10 81° SSW 19:32:28 10° ESE visible
11 Dec - 21:02:58 10° W 21:05:16 18° SW 21:07:34 10° S night (unlit)
12 Dec - 13:45:08 10° S 13:47:32 19° SE 13:49:59 10° E daylight
12 Dec - 15:20:24 10° WSW 15:23:41 87° SSE 15:27:00 10° ENE daylight
12 Dec - 16:57:10 10° WNW 17:00:22 47° N 17:03:36 10° ENE visible
12 Dec - 18:33:50 10° WNW 18:37:09 73° NNE 18:40:27 10° ESE visible
12 Dec - 20:10:33 10° W 20:13:27 28° SW 20:16:20 10° SSE visible
13 Dec - 12:54:33 10° SSE 12:55:46 12° SE 12:56:59 10° ESE daylight
13 Dec - 14:28:27 10° SW 14:31:42 58° SSE 14:34:57 10° ENE daylight
13 Dec - 16:05:01 10° W 16:08:16 52° N 16:11:31 10° ENE daylight
13 Dec - 17:41:47 10° WNW 17:45:03 57° NNE 17:48:20 10° E visible
13 Dec - 19:18:21 10° WNW 19:21:33 45° SSW 19:24:43 10° SE visible
14 Dec - 13:36:42 10° SW 13:39:45 37° SSE 13:42:49 10° ENE daylight
14 Dec - 15:12:54 10° W 15:16:09 62° NNW 15:19:27 10° ENE daylight
14 Dec - 16:49:43 10° WNW 16:52:56 49° N 16:56:11 10° E visible
14 Dec - 18:26:16 10° WNW 18:29:34 70° SSW 18:32:51 10° ESE visible
14 Dec - 20:03:40 10° W 20:05:35 15° SW 20:07:30 10° S visible
15 Dec - 12:45:12 10° SSW 12:47:52 23° SE 12:50:32 10° E daylight
15 Dec - 14:20:47 10° WSW 14:24:04 83° NNW 14:27:23 10° ENE daylight
15 Dec - 15:57:36 10° WNW 16:00:48 47° N 16:04:01 10° ENE daylight
15 Dec - 17:34:13 10° WNW 17:37:31 82° NNE 17:40:50 10° ESE visible
15 Dec - 19:11:03 10° W 19:13:45 23° SW 19:16:28 10° SSE visible
16 Dec - 11:54:11 10° S 11:56:01 14° SE 11:57:51 10° ESE daylight
16 Dec - 13:28:46 10° WSW 13:32:01 69° SSE 13:35:18 10° ENE daylight
16 Dec - 15:05:26 10° W 15:08:38 49° N 15:11:53 10° ENE daylight
16 Dec - 16:42:09 10° WNW 16:45:26 62° NNE 16:48:42 10° E daylight
16 Dec - 18:18:45 10° WNW 18:21:51 37° SSW 18:24:55 10° SE visible
17 Dec - 12:36:53 10° SW 12:40:01 44° SSE 12:43:11 10° ENE daylight
17 Dec - 14:13:14 10° W 14:16:29 57° NNW 14:19:46 10° ENE daylight
17 Dec - 15:50:03 10° WNW 15:53:17 51° N 15:56:31 10° E daylight
17 Dec - 17:26:35 10° WNW 17:29:51 59° SSW 17:33:07 10° SE visible
17 Dec - 19:04:27 10° WSW 19:05:47 12° SW 19:07:08 10° SSW visible
18 Dec - 11:45:14 10° SSW 11:48:04 27° SE 11:50:55 10° E daylight
18 Dec - 13:21:04 10° WSW 13:24:21 74° NNW 13:27:39 10° ENE daylight
18 Dec - 14:57:53 10° WNW 15:01:06 47° N 15:04:19 10° ENE daylight
18 Dec - 16:34:29 10° WNW 16:37:47 88° SSW 16:41:06 10° ESE daylight
18 Dec - 18:11:28 10° W 18:13:56 20° SW 18:16:25 10° S visible
19 Dec - 10:53:57 10° S 10:56:10 17° SE 10:58:23 10° E daylight
19 Dec - 12:28:59 10° WSW 12:32:15 80° SSE 12:35:33 10° ENE daylight
19 Dec - 14:05:42 10° W 14:08:55 48° N 14:12:07 10° ENE daylight
19 Dec - 15:42:23 10° WNW 15:45:40 68° NNE 15:48:57 10° E daylight
19 Dec - 17:19:03 10° W 17:22:01 31° SW 17:24:59 10° SSE visible
